Regional Weather Roundup
Issued by NWS

Home | Current Version | Previous Version | Graphics & Text | Print | Product List | Glossary On
Versions: 1 2 3 4 5 6 7 8 9 10 11 12 13 14 15 16 17 18 19 20 21 22 23 24 25 26 27 28 29 30 31 32 33 34 35 36 37 38 39 40 41 42 43 44 45 46 47 48 49 50
000
ASUS45 KABQ 282210
RWRNM
NEW MEXICO REGIONAL WEATHER ROUNDUP
NATIONAL WEATHER SERVICE ALBUQUERQUE NM
400 PM MDT THU APR 28 2016

NOTE: "FAIR" MEANS FEW OR NO CLOUDS BELOW 12,000 FEET AGL WITH NO
       SIGNIFICANT WEATHER OR OBSTRUCTIONS TO VISION.

      THIS PRODUCT IS RELEASED AS TWO VERSIONS.  ONE VERSION NEAR
      THE TOP OF THE HOUR CONTAINING PRELIMINARY DATA FROM ALBUQUERQUE
      AND OTHER STATIONS.  A FINAL VERSION WITH ADDITIONAL DATA IS
      ISSUED ABOUT 10 MINUTES AFTER THE HOUR.

NMZ501-503-504-510>518-282300-
NORTHWEST PLATEAU/NORTHCENTRAL MOUNTAINS

CITY           SKY/WX    TMP DP  RH WIND       PRES   REMARKS
FARMINGTON     PTSUNNY   62  20  19 NW20G29   29.66R
LOS ALAMOS     PTSUNNY   61   8  12 S18G30    29.78F
SANTA FE       PTSUNNY   68   7   9 S24G32    29.73F
TAOS           PTSUNNY   55  25  30 S26G36    29.80S
ANGEL FIRE     DRIZZLE   41  37  84 S12       29.93R

$$
NMZ402-403-502-505>509-282300-
WESTCENTRAL MOUNTAINS/SOUTHWEST MOUNTAINS

CITY           SKY/WX    TMP DP  RH WIND       PRES   REMARKS
GALLUP         FAIR      63   4   9 SW30G44   29.73S
GRANTS         FAIR      67   3   8 SW15G29   29.74F

$$
NMZ407-409-411-412-282300-
SOUTHERN DESERTS

CITY           SKY/WX    TMP DP  RH WIND       PRES   REMARKS
LORDSBURG      FAIR      77  12   8 SW14G33   29.71F
DEMING         FAIR      79  17  10 W25G33    29.72F
LAS CRUCES     FAIR      78  18  10 SW16G25   29.74F
HOLLOMAN AFB   FAIR      80  16   9 SW17G25   29.70F
ALAMOGORDO     FAIR      77  18  10 S21G33    29.73F
T OR C         FAIR      75   2   6 S25G43    29.69F

$$
NMZ519>523-282300-
CENTRAL VALLEYS/CENTRAL HIGHLANDS

CITY           SKY/WX    TMP DP  RH WIND       PRES   REMARKS
ALBUQUERQUE    FAIR      72  11   9 S17G32    29.69F
DOUBLE EAGLE   PTSUNNY   68  16  13 S18G26    29.72F
MORIARTY ARPT  FAIR      70   4   7 S14G29    29.78F
CLINES CORNERS PTSUNNY   66  15  14 SE13G25   29.80F
BELEN          FAIR      74  13   9 S23G31    29.69F
SOCORRO        FAIR      76  11   8 S21G30    29.67F

$$
NMZ524>526-539-540-282300-
SOUTHCENTRAL MOUNTAINS

CITY           SKY/WX    TMP DP  RH WIND       PRES   REMARKS
RUIDOSO          N/A     66  16  14 SW29G40   29.85F

$$
NMZ527>531-282300-
NORTHEAST HIGHLANDS/NORTHEAST PLAINS

CITY           SKY/WX    TMP DP  RH WIND       PRES   REMARKS
LAS VEGAS      FAIR      62  28  27 S16G39    29.83F
RATON          CLOUDY    54  33  45 S13G18    29.88R
CLAYTON        FAIR      56  39  53 NE20G25   29.88F

$$
NMZ532>537-282300-
EASTCENTRAL PLAINS

CITY           SKY/WX    TMP DP  RH WIND       PRES   REMARKS
TUCUMCARI      FAIR      76  41  28 NE22      29.72F
CANNON AFB     MOSUNNY   80  15   8 SW17G33   29.70F
CLOVIS AIRPORT FAIR      82  25  12 S21G28    29.71F

$$
NMZ028-029-538-282300-
SOUTHEAST PLAINS

CITY           SKY/WX    TMP DP  RH WIND       PRES   REMARKS
ROSWELL        FAIR      85  18   8 S23G38    29.65F
ARTESIA        FAIR      86  19   8 SW25      29.67F
CARLSBAD       FAIR      88  13   6 S10G28    29.65F
HOBBS          SUNNY     84  14   7 S13G25    29.71F


$$




USA.gov is the U.S. government's official web portal to all federal, state and local government web resources and services.